[[{"header":{"parameterUnit":"m.s-1","parameterCategory":1,"la1":30.2991,"la2":30.254,"lo1":-89.0895,"lo2":-89.0444,"dy":0.0017,"dx":0.0017,"nx":28,"ny":28,"refTime":"2025-04-29T21:00:00:Z","depth":0,"parameterNumber":2,"parameterNumberName":"U-component_of_WINDS"},"data":[0,0,0,0,0,0,0,0,0,0,0,0,0,0,0,0,0,0,0,0,0,0,0,0,0,0,0,0,0,0,0,0,0,0,0,0,0,0,0,0,0,0,0,0,0,0,0,0,0,0,0,0,0,0,0,0,0,0,-2.1958,-2.196,0,-2.2131,-2.2133,-2.2135,-2.2193,-2.2193,-2.2192,-2.2191,-2.2369,-2.2375,-2.238,0,0,0,0,0,0,0,0,0,0,0,0,0,-2.168,-2.1684,-2.1957,-2.196,-2.1962,-2.213,-2.2133,-2.2135,-2.2193,-2.2193,-2.2192,-2.2191,-2.2368,-2.2374,-2.238,0,0,0,0,0,0,0,0,0,0,0,0,0,-2.1821,-2.1686,-2.1957,-2.2011,-2.2018,-2.213,-2.2133,-2.2136,-2.2194,-2.2192,-2.2191,-2.219,-2.2365,-2.2373,-2.2381,-2.2453,0,0,-2.2406,-2.241,0,0,0,0,0,0,0,0,-2.1813,-2.1831,-2.2001,-2.2008,-2.2015,-2.2139,-2.21,-2.2242,-2.2194,-2.2127,-2.2191,-2.219,-2.2294,-2.2308,-2.2343,-2.2461,-2.2469,-2.2407,-2.2412,-2.2415,-2.2418,0,0,0,0,0,0,0,-2.1803,-2.1824,-2.2026,-2.2003,-2.2012,-2.2028,-2.2046,-2.2127,-2.2214,-2.2133,-2.2137,-2.2157,-2.2297,-2.2335,-2.2347,-2.2471,-2.2407,-2.2414,-2.2419,-2.2422,-2.2658,-2.2659,0,0,0,0,0,0,-2.1784,-2.1816,-2.2021,-2.2031,-2.1909,-2.2033,-2.2055,-2.2101,-2.2213,-2.223,-2.2158,-2.2159,-2.2321,-2.2338,-2.2354,-2.2445,-2.2415,-2.2423,-2.2427,-2.2656,-2.2658,-2.266,0,0,0,0,0,0,-2.1778,-2.1802,-2.2014,-2.1925,-2.1953,-2.2039,-2.209,-2.2105,-2.2142,-2.2232,-2.2248,-2.2179,-2.2321,-2.2342,-2.2428,-2.2452,-2.2426,-2.2434,-2.2655,-2.2657,-2.2659,-2.2627,0,0,0,0,0,0,-2.177,-2.1799,-2.1827,-2.1925,-2.1957,-2.2084,-2.2092,-2.2109,-2.2155,-2.2159,-2.2257,-2.2272,-2.2322,-2.2415,-2.2436,-2.2462,-2.244,-2.2653,-2.2656,-2.2658,-2.2626,-2.2628,-2.2629,0,0,0,0,0,-2.1759,-2.1811,-2.1828,-2.1852,-2.1993,-2.2085,-2.2104,-2.2159,-2.2157,-2.2186,-2.2244,-2.2269,-2.2446,-2.2423,-2.2447,-2.2476,-2.2652,-2.2655,-2.2658,-2.2625,-2.2627,-2.2629,0,0,0,0,0,0,-2.1713,-2.1825,-2.1844,-2.1929,-2.1997,-2.2095,-2.2133,-2.216,-2.223,-2.223,-2.2297,-2.2319,-2.2399,-2.2447,-2.242,-2.2552,-2.255,-2.2558,-2.2517,-2.252,-2.2521,-2.2508,-2.2447,0,0,0,0,0,-2.1713,-2.1777,-2.1872,-2.1937,-2.197,-2.2045,-2.2088,-2.2125,-2.2198,-2.2227,-2.2292,-2.2363,-2.2434,-2.248,-2.2551,-2.2634,-2.2656,-2.2666,-2.2667,-2.2668,-2.2673,-2.2721,-2.2727,-2.267,-2.267,-2.267,0,0,-2.1712,-2.1781,-2.1818,-2.193,-2.1987,-2.2053,-2.2069,-2.2138,-2.2188,-2.2238,-2.2322,-2.2372,-2.2456,-2.254,-2.2581,-2.2582,-2.2694,-2.2672,-2.2672,-2.2677,-2.2725,-2.273,-2.2735,-2.2672,-2.2672,-2.2671,0,0,-2.1745,-2.1804,-2.1865,-2.1922,-2.2009,-2.2059,-2.2073,-2.2167,-2.2202,-2.2288,-2.2327,-2.2388,-2.251,-2.2568,-2.2613,-2.2669,-2.2695,-2.2691,-2.2697,-2.2743,-2.2748,-2.2752,-2.2772,-2.2778,-2.2696,-2.2696,-2.2696,0,-2.1734,-2.1835,-2.1893,-2.1961,-2.2009,-2.2057,-2.212,-2.2172,-2.2277,-2.231,-2.231,-2.2465,-2.2524,-2.2623,-2.2637,-2.2672,-2.2691,-2.2679,-2.2742,-2.2747,-2.2752,-2.2772,-2.2779,-2.2695,-2.2695,-2.2696,-2.2696,0,-2.1817,-2.1886,-2.1925,-2.2025,-2.2078,-2.2142,-2.2211,-2.2258,-2.2291,-2.2341,-2.2428,-2.2502,-2.2588,-2.2615,-2.2648,-2.2719,-2.2717,-2.2729,-2.2729,-2.2755,-2.2775,-2.2783,-2.2694,-2.2694,-2.2694,-2.2695,0,0,-2.1824,-2.1956,-2.197,-2.2016,-2.2115,-2.217,-2.2238,-2.2322,-2.2361,-2.2432,-2.249,-2.2593,-2.2605,-2.2656,-2.2697,-2.2737,-2.2777,-2.2744,-2.2747,-2.2747,-2.286,-2.2849,-2.2857,-2.2795,-2.2797,-2.2798,-2.2853,0,-2.187,-2.1991,-2.2046,-2.2143,-2.2208,-2.2256,-2.2315,-2.2382,-2.2431,-2.2494,-2.2548,-2.262,-2.263,-2.2662,-2.2704,-2.2763,-2.28,-2.276,-2.285,-2.2853,-2.2827,-2.2868,-2.2857,-2.2905,-2.2861,-2.2862,-2.2863,0,-2.1939,-2.201,-2.2113,-2.2205,-2.2235,-2.2286,-2.2369,-2.2428,-2.2506,-2.2539,-2.2597,-2.2636,-2.2709,-2.2704,-2.2806,-2.2778,-2.2818,-2.2853,-2.2856,-2.2866,-2.2859,-2.2878,-2.2922,-2.2928,-2.2876,-2.2875,-2.2874,0,-2.1934,-2.2055,-2.2133,-2.2171,-2.228,-2.2316,-2.2363,-2.244,-2.2488,-2.256,-2.2592,-2.2672,-2.2716,-2.2777,-2.2837,-2.2828,-2.2933,-2.2933,-2.2963,-2.2961,-2.2982,-2.2979,-2.3031,-2.3009,-2.3009,-2.3009,-2.3008,0,-2.1979,-2.204,-2.2132,-2.2179,-2.225,-2.2313,-2.2381,-2.2432,-2.2501,-2.256,-2.2606,-2.266,-2.2736,-2.28,-2.2848,-2.2925,-2.2945,-2.2974,-2.2985,-2.2969,-2.2965,-2.2996,-2.2994,-2.3011,-2.301,-2.301,-2.3009,0,-2.1984,-2.2048,-2.2136,-2.2232,-2.2258,-2.2305,-2.2389,-2.2437,-2.2489,-2.2563,-2.2584,-2.2665,-2.2743,-2.2809,-2.2911,-2.2943,-2.3024,-2.3038,-2.2997,-2.3003,-2.3028,-2.3025,-2.3101,-2.3114,-2.3083,-2.3083,-2.3083,0,-2.2008,-2.2056,-2.2158,-2.22,-2.2247,-2.2315,-2.2363,-2.2428,-2.2477,-2.257,-2.2608,-2.2689,-2.2758,-2.288,-2.2949,-2.3028,-2.3044,-2.3066,-2.3056,-2.3038,-2.3044,-2.304,-2.3045,-2.3066,-2.3066,-2.3066,-2.3066,0,-2.2043,-2.2073,-2.2141,-2.2221,-2.2277,-2.2343,-2.241,-2.2443,-2.252,-2.2573,-2.2653,-2.2706,-2.2812,-2.2892,-2.2979,-2.3028,-2.306,-2.3068,-2.3079,-2.3063,-2.3037,-2.3051,-2.2998,-2.3066,-2.3066,-2.3066,-2.3066,-2.3066,-2.2059,-2.2104,-2.2182,-2.2257,-2.2314,-2.2376,-2.2426,-2.2484,-2.2552,-2.2642,-2.2677,-2.2759,-2.2837,-2.2957,-2.3007,-2.3072,-2.3077,-2.3092,-2.3096,-2.3099,-2.3096,-2.3027,-2.3088,-2.3089,-2.3089,-2.3089,-2.3089,0,-2.2097,-2.215,-2.2218,-2.231,-2.2369,-2.2393,-2.2469,-2.2517,-2.2588,-2.2658,-2.2725,-2.2817,-2.2896,-2.297,-2.3053,-2.3091,-2.3108,-2.311,-2.3108,-2.3119,-2.3088,-2.307,-2.3096,-2.3096,-2.3096,-2.3096,-2.3096,-2.3095,-2.2123,-2.2201,-2.2239,-2.2346,-2.2399,-2.2479,-2.2521,-2.2578,-2.2634,-2.2735,-2.28,-2.2849,-2.2921,-2.3009,-2.3082,-2.3103,-2.3131,-2.3129,-2.3153,-2.3123,-2.3121,-2.312,-2.3103,-2.3135,-2.3135,-2.3179,-2.3179,-2.3179]},{"header":{"parameterUnit":"m.s-1","parameterCategory":1,"la1":30.2991,"la2":30.254,"lo1":-89.0895,"lo2":-89.0444,"dy":0.0017,"dx":0.0017,"nx":28,"ny":28,"refTime":"2025-04-29T21:00:00:Z","depth":0,"parameterNumber":3,"parameterNumberName":"V-component_of_WINDS"},"data":[0,0,0,0,0,0,0,0,0,0,0,0,0,0,0,0,0,0,0,0,0,0,0,0,0,0,0,0,0,0,0,0,0,0,0,0,0,0,0,0,0,0,0,0,0,0,0,0,0,0,0,0,0,0,0,0,0,0,3.6268,3.6269,0,3.6353,3.6354,3.6355,3.6354,3.6353,3.6352,3.6351,3.6432,3.6435,3.6438,0,0,0,0,0,0,0,0,0,0,0,0,0,3.6101,3.6104,3.6268,3.6269,3.627,3.6353,3.6354,3.6355,3.6354,3.6353,3.6351,3.635,3.6431,3.6435,3.6439,0,0,0,0,0,0,0,0,0,0,0,0,0,3.6178,3.6105,3.6268,3.628,3.6282,3.6352,3.6354,3.6355,3.6354,3.6353,3.6351,3.635,3.643,3.6434,3.6439,3.6502,0,0,3.6454,3.6456,0,0,0,0,0,0,0,0,3.6174,3.6184,3.6277,3.6279,3.6281,3.6341,3.6325,3.6404,3.6355,3.6327,3.6351,3.6349,3.6403,3.641,3.6429,3.6505,3.6509,3.6454,3.6457,3.6459,3.646,0,0,0,0,0,0,0,3.6168,3.6181,3.6301,3.6278,3.6281,3.6279,3.6289,3.634,3.6373,3.6329,3.6329,3.6339,3.6404,3.6424,3.6431,3.651,3.6454,3.6458,3.6461,3.6463,3.6643,3.6644,0,0,0,0,0,0,3.6161,3.6176,3.6299,3.6304,3.6223,3.6284,3.6294,3.6324,3.6372,3.6378,3.6341,3.6339,3.6417,3.6425,3.6434,3.6511,3.6459,3.6464,3.6466,3.6641,3.6643,3.6645,0,0,0,0,0,0,3.6158,3.6172,3.6295,3.624,3.6256,3.6289,3.6322,3.6326,3.6347,3.6381,3.6387,3.6356,3.6416,3.6427,3.6485,3.6513,3.6466,3.647,3.6638,3.6641,3.6644,3.6664,0,0,0,0,0,0,3.6153,3.6171,3.6196,3.6241,3.6259,3.6347,3.6323,3.6329,3.6356,3.6354,3.6397,3.6403,3.6416,3.6478,3.649,3.6519,3.6474,3.6636,3.664,3.6643,3.6661,3.6668,3.6673,0,0,0,0,0,3.6147,3.6197,3.6197,3.6212,3.6291,3.6348,3.6358,3.6374,3.6358,3.6383,3.6405,3.6401,3.6509,3.6484,3.6498,3.6528,3.6634,3.6639,3.6643,3.6659,3.6666,3.6673,0,0,0,0,0,0,3.6152,3.6203,3.6204,3.627,3.6305,3.6348,3.638,3.6381,3.642,3.6417,3.6433,3.6442,3.6501,3.652,3.6492,3.6592,3.6569,3.6576,3.6577,3.6584,3.659,3.6584,3.6478,0,0,0,0,0,3.6162,3.6206,3.6247,3.6301,3.6319,3.6347,3.6372,3.6381,3.6417,3.6432,3.6458,3.6492,3.6533,3.656,3.66,3.6664,3.6673,3.6692,3.6698,3.6703,3.6708,3.6744,3.6753,3.6659,3.6659,3.6659,0,0,3.6181,3.6214,3.624,3.6303,3.6332,3.6375,3.6359,3.6406,3.6438,3.6438,3.6495,3.6516,3.6555,3.6617,3.6645,3.6635,3.6737,3.6708,3.6712,3.6715,3.675,3.6758,3.6766,3.6662,3.6661,3.6661,0,0,3.6238,3.6267,3.6316,3.6346,3.6389,3.6408,3.6419,3.6463,3.6477,3.6535,3.6536,3.6574,3.6645,3.6673,3.6696,3.6765,3.6763,3.6778,3.6808,3.6842,3.685,3.6856,3.6881,3.689,3.6783,3.6784,3.6784,0,3.6255,3.6323,3.6341,3.6389,3.6416,3.6421,3.647,3.6497,3.655,3.6569,3.6557,3.6647,3.6673,3.6742,3.6759,3.6778,3.6791,3.6773,3.6848,3.6855,3.6861,3.6884,3.6894,3.6785,3.6785,3.6785,3.6785,0,3.6342,3.6389,3.6423,3.6478,3.6509,3.6557,3.6581,3.6611,3.6617,3.6636,3.6695,3.6728,3.6774,3.6791,3.6797,3.6861,3.6853,3.6845,3.6822,3.6871,3.6893,3.6903,3.6787,3.6787,3.6786,3.6786,0,0,3.6404,3.6469,3.6481,3.6506,3.6555,3.6591,3.6639,3.6687,3.6712,3.6749,3.6789,3.685,3.6843,3.6869,3.6878,3.6909,3.6962,3.6896,3.6897,3.6907,3.7034,3.704,3.705,3.6961,3.6963,3.6964,3.7031,0,3.6466,3.6554,3.6572,3.6647,3.669,3.6696,3.6738,3.6772,3.6791,3.6829,3.685,3.6893,3.688,3.6896,3.6927,3.6949,3.6987,3.6944,3.6997,3.6999,3.6987,3.7062,3.7069,3.713,3.7039,3.7041,3.7042,0,3.655,3.6591,3.6672,3.6716,3.6735,3.6773,3.6818,3.6856,3.6894,3.6906,3.6936,3.6943,3.6992,3.6968,3.7035,3.7006,3.7028,3.7043,3.7045,3.705,3.7023,3.7069,3.7149,3.7159,3.7056,3.7055,3.7054,0,3.6587,3.6663,3.6721,3.6742,3.6795,3.6821,3.6844,3.6882,3.691,3.6949,3.6967,3.7011,3.7035,3.7068,3.7085,3.7067,3.7152,3.7129,3.7162,3.7161,3.7179,3.7177,3.7264,3.7194,3.7194,3.7194,3.7194,0,3.6654,3.6703,3.6738,3.6774,3.6829,3.6849,3.6902,3.6924,3.6957,3.6996,3.7003,3.7039,3.7061,3.71,3.7113,3.7167,3.7178,3.7188,3.7191,3.7187,3.7186,3.7202,3.7198,3.7196,3.7196,3.7195,3.7195,0,3.6704,3.673,3.6794,3.684,3.6853,3.6891,3.6929,3.6964,3.6984,3.7033,3.7046,3.7076,3.7123,3.7144,3.72,3.721,3.7271,3.7271,3.7259,3.726,3.7291,3.7288,3.7391,3.7405,3.7326,3.7327,3.7327,0,3.6745,3.6784,3.6834,3.6862,3.6887,3.6931,3.696,3.6981,3.7011,3.7058,3.7087,3.7134,3.7173,3.7246,3.7272,3.7316,3.7317,3.735,3.7323,3.7319,3.7317,3.7315,3.7318,3.7354,3.7355,3.7356,3.7356,0,3.6816,3.6827,3.687,3.6918,3.6953,3.6991,3.7028,3.705,3.7077,3.711,3.7158,3.7189,3.7248,3.7294,3.734,3.7361,3.7363,3.7365,3.7375,3.7371,3.7363,3.7368,3.7271,3.7362,3.7362,3.7361,3.7361,3.7361,3.6863,3.6897,3.6939,3.6987,3.7017,3.7052,3.7087,3.7112,3.7154,3.7205,3.7214,3.7266,3.7303,3.7365,3.7389,3.7429,3.7421,3.7435,3.7438,3.7442,3.7444,3.7357,3.7437,3.7437,3.7437,3.7437,3.7436,0,3.6934,3.6961,3.7005,3.7058,3.7095,3.7096,3.7137,3.7168,3.7214,3.725,3.7289,3.7345,3.739,3.7421,3.7466,3.7492,3.7494,3.7503,3.7501,3.7507,3.7448,3.7435,3.7501,3.7501,3.7501,3.7501,3.7501,3.7501,3.6975,3.7034,3.705,3.7123,3.715,3.7202,3.7226,3.7258,3.7287,3.735,3.7388,3.7409,3.7442,3.7491,3.7532,3.754,3.7556,3.7566,3.7573,3.7517,3.7511,3.7504,3.7492,3.7569,3.7569,3.7628,3.7628,3.7629]}]]